Charles City, IA

1:31 AM CDT on May 25, 2017 (GMT -0500)
Charles City Municipal

Weather History for KCCY - October, 2010

Change the Weather History Date:

Wednesday, October 27, 2010

  Actual Average Record
Temperature  
Mean Temperature 40 °F -  
Max Temperature 44 °F 59 °F 80 °F (1966)
Min Temperature 35 °F 37 °F 19 °F (1997)
Degree Days  
Heating Degree Days 26    
Moisture  
Dew Point 33 °F    
Average Humidity 75    
Maximum Humidity 93    
Minimum Humidity 61    
Precipitation  
Precipitation 0.00 in - - ()
Sea Level Pressure  
Sea Level Pressure 29.47 in    
Wind  
Wind Speed 25 mph (WSW)    
Max Wind Speed 39 mph    
Max Gust Speed 54 mph    
Visibility 10 miles    
Events      
Averages and records for this station are not official NWS values.
T = Trace of Precipitation, MM = Missing Value Source: NWS Daily Summary

Daily Weather History Graph

Daily Weather History Graph

Search for Another Location

Airport or City:

Trip Planner

Search our weather history database for the weather conditions in past years. The results will help you decide how hot, cold, wet, or windy it might be!

Date:

Astronomy

Oct. 27, 2010 Rise Set
Actual Time 7:38 AM CDT 6:09 PM CDT
Civil Twilight 7:09 AM CDT 6:38 PM CDT
Nautical Twilight 6:36 AM CDT 7:11 PM CDT
Astronomical Twilight 6:03 AM CDT 7:44 PM CDT
Moon 9:27 PM CDT (10/27) 12:18 PM CDT (10/27)
Length of Visible Light 11h 28m
Length of Day
10h 30m
Waning Gibbous, 79% of the Moon is Illuminated
Oct 27
Waning Gibbous
Oct 30
Last Quarter
Nov 5
New
Nov 13
First Quarter
Nov 21
Full

Hourly Weather History & Observations

Time (CDT) Temp. Windchill Dew Point Humidity Pressure Visibility Wind Dir Wind Speed Gust Speed Precip Events Conditions
12:15 AM 44.6 °F 36.1 °F 35.6 °F 71% 29.27 in 10.0 mi WSW 21.9 mph 32.2 mph N/A   Mostly Cloudy
12:55 AM 44.6 °F 35.5 °F 33.8 °F 66% 29.27 in 10.0 mi WSW 25.3 mph 33.4 mph N/A   Scattered Clouds
1:15 AM 42.8 °F 33.5 °F 33.8 °F 70% 29.27 in 10.0 mi WSW 23.0 mph 32.2 mph N/A   Clear
1:35 AM 42.8 °F 33.8 °F 33.8 °F 70% 29.27 in 10.0 mi West 21.9 mph 32.2 mph N/A   Scattered Clouds
1:55 AM 42.8 °F 35.1 °F 33.8 °F 70% 29.28 in 10.0 mi SW 16.1 mph 25.3 mph N/A   Scattered Clouds
2:15 AM 42.8 °F 34.0 °F 33.8 °F 70% 29.28 in 10.0 mi SW 20.7 mph 26.5 mph N/A   Clear
2:35 AM 42.8 °F 34.3 °F 33.8 °F 70% 29.28 in 10.0 mi WSW 19.6 mph 27.6 mph N/A   Clear
2:55 AM 42.8 °F 34.0 °F 33.8 °F 70% 29.28 in 10.0 mi WSW 20.7 mph 27.6 mph N/A   Clear
3:15 AM 42.8 °F 34.5 °F 33.8 °F 70% 29.29 in 10.0 mi WSW 18.4 mph 28.8 mph N/A   Scattered Clouds
3:35 AM 44.6 °F 36.1 °F 33.8 °F 66% 29.30 in 10.0 mi WSW 21.9 mph 29.9 mph N/A   Mostly Cloudy
3:55 AM 42.8 °F 34.5 °F 33.8 °F 70% 29.29 in 10.0 mi WSW 18.4 mph 28.8 mph N/A   Scattered Clouds
4:15 AM 42.8 °F 33.3 °F 33.8 °F 70% 29.29 in 10.0 mi WSW 24.2 mph 29.9 mph N/A   Scattered Clouds
4:35 AM 42.8 °F 33.3 °F 33.8 °F 70% 29.29 in 10.0 mi WSW 24.2 mph 31.1 mph N/A   Mostly Cloudy
4:55 AM 41.0 °F 31.1 °F 33.8 °F 76% 29.30 in 10.0 mi SW 23.0 mph 28.8 mph N/A   Mostly Cloudy
5:35 AM 42.8 °F 33.1 °F 32.0 °F 66% 29.30 in 10.0 mi WSW 25.3 mph 36.8 mph N/A   Overcast
5:55 AM 42.8 °F 33.1 °F 32.0 °F 66% 29.30 in 10.0 mi WSW 25.3 mph 40.3 mph N/A   Overcast
6:15 AM 42.8 °F 33.3 °F 32.0 °F 66% 29.30 in 10.0 mi SW 24.2 mph 29.9 mph N/A   Overcast
6:55 AM 42.8 °F 33.3 °F 32.0 °F 66% 29.31 in 10.0 mi WSW 24.2 mph 35.7 mph N/A   Overcast
7:15 AM 42.8 °F 33.3 °F 32.0 °F 66% 29.32 in 10.0 mi WSW 24.2 mph 33.4 mph N/A   Overcast
7:35 AM 42.8 °F 33.5 °F 32.0 °F 66% 29.32 in 10.0 mi WSW 23.0 mph 31.1 mph N/A   Overcast
7:55 AM 42.8 °F 33.3 °F 32.0 °F 66% 29.32 in 10.0 mi WSW 24.2 mph 34.5 mph N/A   Overcast
8:15 AM 42.8 °F 32.7 °F 32.0 °F 66% 29.33 in 10.0 mi WSW 27.6 mph 40.3 mph N/A   Overcast
8:35 AM 42.8 °F 32.9 °F 32.0 °F 66% 29.35 in 10.0 mi WSW 26.5 mph 35.7 mph N/A   Overcast
8:55 AM 44.6 °F 35.3 °F 32.0 °F 61% 29.35 in 10.0 mi WSW 26.5 mph 35.7 mph N/A   Overcast
9:15 AM 44.6 °F 34.2 °F 32.0 °F 61% 29.36 in 10.0 mi WSW 33.4 mph 44.9 mph N/A   Overcast
9:35 AM 44.6 °F 33.6 °F 32.0 °F 61% 29.38 in 10.0 mi West 38.0 mph 47.2 mph N/A   Mostly Cloudy
9:55 AM 42.8 °F 31.3 °F 30.2 °F 61% 29.39 in 10.0 mi West 36.8 mph 49.5 mph N/A   Mostly Cloudy
10:15 AM 42.8 °F 32.5 °F 32.0 °F 66% 29.40 in 10.0 mi West 28.8 mph 44.9 mph N/A   Overcast
10:35 AM 42.8 °F 31.9 °F 32.0 °F 66% 29.41 in 10.0 mi West 32.2 mph 50.6 mph N/A   Overcast
10:55 AM 41.0 °F 29.0 °F 32.0 °F 70% 29.42 in 10.0 mi West 35.7 mph 49.5 mph N/A   Overcast
11:15 AM 41.0 °F 29.5 °F 32.0 °F 70% 29.43 in 10.0 mi West 32.2 mph 47.2 mph N/A   Overcast
11:35 AM 42.8 °F 31.8 °F 32.0 °F 66% 29.44 in 10.0 mi WSW 33.4 mph 54.1 mph N/A   Scattered Clouds
11:55 AM 42.8 °F 31.0 °F 30.2 °F 61% 29.46 in 10.0 mi West 39.1 mph 52.9 mph N/A   Mostly Cloudy
12:15 PM 41.0 °F 29.8 °F 32.0 °F 70% 29.47 in 10.0 mi West 29.9 mph 40.3 mph N/A   Overcast
12:35 PM 41.0 °F 29.8 °F 32.0 °F 70% 29.48 in 10.0 mi West 29.9 mph 40.3 mph N/A   Overcast
12:55 PM 41.0 °F 29.5 °F 32.0 °F 70% 29.48 in 10.0 mi West 32.2 mph 46.0 mph N/A   Overcast
1:15 PM 41.0 °F 29.5 °F 32.0 °F 70% 29.49 in 10.0 mi West 32.2 mph 43.7 mph N/A   Overcast
1:35 PM 41.0 °F 29.5 °F 32.0 °F 70% 29.50 in 10.0 mi West 32.2 mph 47.2 mph N/A   Overcast
1:55 PM 41.0 °F 29.1 °F 32.0 °F 70% 29.50 in 10.0 mi West 34.5 mph 46.0 mph N/A   Mostly Cloudy
2:15 PM 39.2 °F 26.3 °F 32.0 °F 75% 29.52 in 10.0 mi West 36.8 mph 42.6 mph N/A   Overcast
2:35 PM 39.2 °F 27.0 °F 33.8 °F 81% 29.53 in 4.0 mi WSW 32.2 mph 41.4 mph N/A   Haze
2:55 PM 37.4 °F 25.2 °F 33.8 °F 87% 29.54 in 10.0 mi WSW 28.8 mph 43.7 mph N/A   Overcast
3:15 PM 37.4 °F 24.2 °F 33.8 °F 87% 29.54 in 10.0 mi West 34.5 mph 42.6 mph N/A   Overcast
3:35 PM 37.4 °F 24.4 °F 33.8 °F 87% 29.56 in 10.0 mi West 33.4 mph 41.4 mph N/A   Overcast
3:55 PM 37.4 °F 25.0 °F 33.8 °F 87% 29.57 in 10.0 mi West 29.9 mph 42.6 mph N/A   Overcast
4:15 PM 37.4 °F 25.6 °F 33.8 °F 87% 29.59 in 10.0 mi WSW 26.5 mph 41.4 mph N/A   Overcast
4:35 PM 37.4 °F 25.2 °F 33.8 °F 87% 29.61 in 10.0 mi West 28.8 mph 34.5 mph N/A   Overcast
4:55 PM 37.4 °F 24.8 °F 33.8 °F 87% 29.62 in 10.0 mi West 31.1 mph 43.7 mph N/A   Overcast
5:15 PM 37.4 °F 24.8 °F 33.8 °F 87% 29.64 in 7.0 mi West 31.1 mph 40.3 mph N/A   Drizzle
5:35 PM 35.6 °F 22.5 °F 33.8 °F 93% 29.65 in 10.0 mi West 29.9 mph 35.7 mph N/A   Overcast
5:55 PM 37.4 °F 25.4 °F 33.8 °F 87% 29.66 in 10.0 mi West 27.6 mph 35.7 mph N/A   Overcast
6:15 PM 37.4 °F 25.6 °F 33.8 °F 87% 29.67 in 10.0 mi West 26.5 mph 36.8 mph N/A   Overcast
6:35 PM 37.4 °F 25.9 °F 33.8 °F 87% 29.68 in 10.0 mi West 25.3 mph 38.0 mph N/A   Overcast
6:55 PM 37.4 °F 25.4 °F 33.8 °F 87% 29.69 in 10.0 mi West 27.6 mph 35.7 mph N/A   Overcast
7:15 PM 37.4 °F 25.6 °F 33.8 °F 87% 29.71 in 10.0 mi West 26.5 mph 34.5 mph N/A   Overcast
7:35 PM 37.4 °F 26.1 °F 33.8 °F 87% 29.72 in 10.0 mi West 24.2 mph 35.7 mph N/A   Overcast
7:55 PM 37.4 °F 26.6 °F 33.8 °F 87% 29.74 in 7.0 mi West 21.9 mph 34.5 mph N/A   Overcast
8:15 PM 37.4 °F 27.2 °F 33.8 °F 87% 29.75 in 10.0 mi West 19.6 mph 29.9 mph N/A   Overcast
8:55 PM 37.4 °F 27.2 °F 33.8 °F 87% 29.77 in 10.0 mi West 19.6 mph 31.1 mph N/A   Overcast
9:15 PM 37.4 °F 26.1 °F 33.8 °F 87% 29.78 in 10.0 mi West 24.2 mph 34.5 mph N/A   Overcast
9:35 PM 37.4 °F 27.2 °F 33.8 °F 87% 29.79 in 10.0 mi West 19.6 mph 31.1 mph N/A   Overcast
9:55 PM 37.4 °F 26.4 °F 33.8 °F 87% 29.80 in 10.0 mi West 23.0 mph 28.8 mph N/A   Overcast
10:15 PM 37.4 °F 27.5 °F 33.8 °F 87% 29.82 in 10.0 mi WNW 18.4 mph 33.4 mph N/A   Overcast
10:55 PM 37.4 °F 26.4 °F 33.8 °F 87% 29.85 in 10.0 mi WNW 23.0 mph 33.4 mph N/A   Overcast
11:15 PM 37.4 °F 27.5 °F 33.8 °F 87% 29.86 in 7.0 mi WNW 18.4 mph 31.1 mph N/A   Overcast
11:55 PM 37.4 °F 25.9 °F 33.8 °F 87% 29.87 in 10.0 mi WNW 25.3 mph 32.2 mph N/A   Overcast